Weather History for Topeka Forbes, KS

Change the Weather History Date:

Friday, October 18, 2013

  Actual Average Record
Temperature  
Mean Temperature 37 °F -  
Max Temperature 43 °F 63 °F 87 °F (1950)
Min Temperature 32 °F 42 °F 24 °F (1948)
Degree Days  
Heating Degree Days 28    
Moisture  
Dew Point 34 °F    
Average Humidity 87    
Maximum Humidity 100    
Minimum Humidity 76    
Precipitation  
Precipitation 0.22 in - - ()
Sea Level Pressure  
Sea Level Pressure 30.13 in    
Wind  
Wind Speed 6 mph (WNW)    
Max Wind Speed 10 mph    
Max Gust Speed -    
Visibility 8 miles    
Events Rain    
Averages and records for this station are not official NWS values.
T = Trace of Precipitation, MM = Missing Value Source: NWS Daily Summary

Daily Weather History Graph

Daily Weather History Graph

Search for Another Location

Airport:

Trip Planner

Search our weather history database for the weather conditions in past years. The results will help you decide how hot, cold, wet, or windy it might be!

Date:

Astronomy

Oct. 18, 2013 Rise Set
Actual Time 7:35 AM CDT 6:39 PM CDT
Civil Twilight 7:08 AM CDT 7:06 PM CDT
Nautical Twilight 6:37 AM CDT 7:37 PM CDT
Astronomical Twilight 6:06 AM CDT 8:08 PM CDT
Moon 6:30 PM CDT (10/18) 7:11 AM CDT (10/18)
Length of Visible Light 11h 57m
Length of Day
11h 04m
Full, 100% of the Moon is Illuminated
Oct 18
Full
Oct 18
Full
Oct 26
Last Quarter
Nov 3
New
Nov 9
First Quarter

Hourly Weather History & Observations

Time (CDT) Temp. Windchill Dew Point Humidity Pressure Visibility Wind Dir Wind Speed Gust Speed Precip Events Conditions
12:53 AM 42.1 °F 37.7 °F 36.0 °F 79% 30.06 in 10.0 mi NW 6.9 mph - N/A   Clear
1:53 AM 39.9 °F 34.5 °F 35.1 °F 83% 30.06 in 10.0 mi NW 8.1 mph - N/A   Clear
2:53 AM 42.1 °F 36.1 °F 36.0 °F 79% 30.06 in 10.0 mi NNW 10.4 mph - N/A   Clear
3:53 AM 39.0 °F 35.7 °F 34.0 °F 82% 30.07 in 10.0 mi NNW 4.6 mph - N/A   Clear
4:53 AM 37.9 °F 34.4 °F 34.0 °F 86% 30.08 in 10.0 mi NNW 4.6 mph - N/A   Clear
5:53 AM 37.9 °F 34.4 °F 34.0 °F 86% 30.08 in 10.0 mi NNW 4.6 mph - N/A   Clear
6:53 AM 37.0 °F 34.5 °F 34.0 °F 89% 30.11 in 10.0 mi NNW 3.5 mph - N/A   Clear
7:53 AM 39.9 °F 37.8 °F 36.0 °F 86% 30.14 in 10.0 mi WNW 3.5 mph - N/A   Mostly Cloudy
8:53 AM 41.0 °F 35.8 °F 36.0 °F 82% 30.16 in 10.0 mi NW 8.1 mph - N/A   Overcast
9:53 AM 42.1 °F 37.1 °F 36.0 °F 79% 30.15 in 10.0 mi North 8.1 mph - 0.00 in Rain Light Rain
10:53 AM 42.1 °F 40.2 °F 36.0 °F 79% 30.15 in 10.0 mi NNE 3.5 mph - 0.01 in   Overcast
11:27 AM 42.8 °F - 35.6 °F 76% 30.17 in 10.0 mi Calm Calm - 0.00 in Rain Light Rain
11:35 AM 42.8 °F 41.1 °F 35.6 °F 76% 30.16 in 10.0 mi Variable 3.5 mph - 0.00 in Rain Light Rain
11:53 AM 41.0 °F 36.4 °F 36.0 °F 82% 30.17 in 9.0 mi North 6.9 mph - 0.01 in Rain Light Rain
12:05 PM 39.2 °F 33.0 °F 35.6 °F 87% 30.15 in 7.0 mi North 9.2 mph - 0.01 in Rain Light Rain
12:24 PM 39.2 °F 35.9 °F 35.6 °F 87% 30.15 in 7.0 mi Variable 4.6 mph - 0.03 in Rain Light Rain
12:32 PM 39.2 °F 34.2 °F 35.6 °F 87% 30.16 in 7.0 mi North 6.9 mph - 0.04 in Rain Light Rain
12:39 PM 39.2 °F 35.0 °F 35.6 °F 87% 30.16 in 8.0 mi NNW 5.8 mph - 0.05 in Rain Light Rain
12:53 PM 39.0 °F 35.7 °F 35.1 °F 86% 30.18 in 7.0 mi NNW 4.6 mph - 0.06 in Rain Rain
1:14 PM 37.4 °F 32.8 °F 33.8 °F 87% 30.14 in 6.0 mi North 5.8 mph - 0.04 in Rain Rain
1:53 PM 37.0 °F 29.8 °F 34.0 °F 89% 30.17 in 10.0 mi NW 10.4 mph - 0.06 in Rain Light Rain
2:04 PM 37.4 °F 32.1 °F 33.8 °F 87% 30.15 in 10.0 mi NW 6.9 mph - 0.01 in Rain Light Rain
2:33 PM 37.4 °F 32.8 °F 35.6 °F 93% 30.14 in 10.0 mi WNW 5.8 mph - 0.02 in Rain Light Rain
2:53 PM 37.0 °F 31.6 °F 34.0 °F 89% 30.17 in 10.0 mi WNW 6.9 mph - 0.03 in Rain Light Rain
3:53 PM 37.0 °F 31.6 °F 34.0 °F 89% 30.16 in 10.0 mi West 6.9 mph - 0.03 in Rain Light Rain
4:53 PM 37.0 °F 32.4 °F 34.0 °F 89% 30.15 in 10.0 mi WNW 5.8 mph - 0.01 in Rain Light Rain
5:53 PM 37.0 °F 33.3 °F 35.1 °F 93% 30.14 in 10.0 mi WSW 4.6 mph - 0.01 in Rain Light Rain
6:53 PM 37.0 °F 34.5 °F 35.1 °F 93% 30.13 in 10.0 mi SW 3.5 mph - 0.00 in   Overcast
7:35 PM 37.4 °F 33.8 °F 33.8 °F 87% 30.12 in 10.0 mi West 4.6 mph - N/A   Mostly Cloudy
7:53 PM 36.0 °F 31.1 °F 34.0 °F 93% 30.15 in 10.0 mi West 5.8 mph - N/A   Scattered Clouds
8:53 PM 34.0 °F 31.0 °F 32.0 °F 92% 30.15 in 10.0 mi WSW 3.5 mph - N/A   Clear
9:53 PM 33.1 °F 28.7 °F 30.9 °F 92% 30.14 in 10.0 mi South 4.6 mph - N/A   Clear
10:24 PM 32.0 °F - 30.2 °F 93% 30.12 in 10.0 mi Calm Calm - N/A   Partly Cloudy
10:41 PM 33.8 °F 26.4 °F 30.2 °F 87% 30.13 in 8.0 mi West 9.2 mph - N/A   Mostly Cloudy
10:51 PM 33.8 °F 25.8 °F 30.2 °F 87% 30.13 in 1.8 mi West 10.4 mph - N/A   Overcast
10:53 PM 33.1 °F 26.1 °F 30.9 °F 92% 30.15 in 1.2 mi West 8.1 mph - N/A   Overcast
11:04 PM 33.8 °F 28.6 °F 32.0 °F 93% 30.12 in 0.8 mi WSW 5.8 mph - N/A   Mist
11:29 PM 33.8 °F 28.6 °F 32.0 °F 93% 30.12 in 1.5 mi WSW 5.8 mph - N/A   Overcast
11:33 PM 33.8 °F 27.7 °F 33.8 °F 100% 30.12 in 3.0 mi WSW 6.9 mph - N/A   Overcast
11:53 PM 35.1 °F 29.3 °F 33.1 °F 92% 30.14 in 8.0 mi WSW 6.9 mph - N/A   Overcast